Погода в Латынине

Россия / Калужская область     54°43′04″N   36°51′51″E
темп.,
°C
ветер,
м/с
пор.,
м/с
влажн.,
%
обл.,
%
осадки,
мм/ч
давл.,
гПа
погр.,
м
27 июля, вт
вт2700:00+16зюз228480 0.1 102216
03:00+16зюз22895 0.1 102217
06:00+17зюз11898 0.2 102134
09:00+22зюз12750 1.1 1021372
12:00+28сз23432 0.0 10201826
15:00+28зсз233780 0.0 10192304
18:00+22ю136261 0.6 101893
21:00+18вюв237623 0.7 101848
28 июля, ср
ср2800:00+16юз2284100 0.0 101837
03:00+16ю1191100 0.1 101714
06:00+17ю2382100 0.0 101671
09:00+18ююв2476100 0.0 1015108
12:00+21ю3767100 0.0 1014469
15:00+18ю41282100 0.6 1014830
18:00+18ю41184100 0.4 1011651
21:00+17ю4119696 1.6 1009506
29 июля, чт
чт2900:00+18зюз489591 0.1 1008516
03:00+17з389981 0.1 1008376
06:00+16з3109857 0.0 1008425
09:00+20зсз4785100 0.0 1008602
12:00+25зсз5755100 0.0 10081336
15:00+28зсз4740100 0.0 10072568
18:00+24зсз266072 0.0 1007388
21:00+20з227247 0.0 100716
30 июля, пт
пт3000:00+18зюз3586100 0.1 100891
03:00+16з25938 0.1 100886
06:00+17зюз24914 0.0 1009105
09:00+23з34650 0.0 1008488
12:00+27зюз34462 0.0 10081717
15:00+28з4644100 0.1 10072227
18:00+26з355521 0.0 1007931
21:00+20з227699 0.3 100717
31 июля, сб
сб3100:00+17юз34835 0.0 100862
03:00+17юз378490 0.0 1007120
06:00+17юз398250 0.0 1007209
09:00+23зюз485698 0.0 1007590
12:00+25юз6104652 0.0 10071443
15:00+24зюз5953100 0.0 10061006
18:00+26зюз595214 0.0 10061842
21:00+20юз377339 0.0 1007142